15min,AgWx,beryljct,423,14NOV2019:00:00:00,30.2,12.88,27.8,27.2,26.6,27.2,25.4,52,66,47,0.240,11.4,15.7,9.7,2.214,1.4,144,4.3,2.2,-0.00009,-0.00011,40.8,43.8,8,0,.,.,5.77,0.00,0.00
15min,AgWx,beryljct,423,14NOV2019:00:15:00,29.5,12.87,23.4,24.1,26.2,27.5,24.1,50,59,45,0.240,9.9,13.5,7.6,0,1.8,169,7.0,3.1,-0.00005,-0.00006,40.6,43.7,8,0,.,.,5.78,0.00,0.00
15min,AgWx,beryljct,423,14NOV2019:00:30:00,28.7,12.85,25.2,24.6,24.0,24.6,23.4,61,65,55,0.278,12.7,13.6,10.2,0,0.0,164,0.0,0.5,-0.00021,-0.00033,40.4,43.7,8,0,.,.,5.77,0.00,0.00
15min,AgWx,beryljct,423,14NOV2019:00:45:00,28.0,12.85,24.7,24.0,24.7,25.1,24.0,57,62,52,0.249,11.7,13.5,10.0,2.433,1.1,140,9.0,2.8,-0.00012,-0.00016,40.3,43.7,8,0,.,.,5.78,0.00,0.00
15min,AgWx,beryljct,423,14NOV2019:01:00:00,27.5,12.82,25.1,24.8,24.1,24.8,23.4,58,63,55,0.250,11.6,12.6,10.5,2.653,2.2,165,6.1,2.8,-0.00005,-0.00005,40.1,43.6,8,0,.,.,5.77,0.00,0.00
15min,AgWx,beryljct,423,14NOV2019:01:15:00,27.0,12.83,23.2,22.9,23.4,24.8,22.8,60,69,52,0.290,11.6,14.4,9.5,2.061,2.5,179,11,4.0,-0.00004,-0.00003,39.9,43.6,8,0,.,.,5.78,0.00,0.00
15min,AgWx,beryljct,423,14NOV2019:01:30:00,26.5,12.82,23.9,23.6,23.1,23.6,22.7,64,70,53,0.229,12.8,14.4,9.0,0,0.9,187,4.8,2.1,-0.00013,-0.00018,39.8,43.5,8,0,.,.,5.77,0.00,0.00
15min,AgWx,beryljct,423,14NOV2019:01:45:00,26.1,12.8,22.4,21.9,22.7,23.6,21.8,58,67,51,0.266,10.1,12.7,8.1,0.504,0.3,132,0.0,1.7,-0.00017,-0.00026,39.7,43.5,8,0,.,.,5.78,0.00,0.00
15min,AgWx,beryljct,423,14NOV2019:02:00:00,25.5,12.8,23.4,22.9,22.1,22.9,21.6,66,68,60,0.252,12.3,12.9,11.1,0.745,0.4,132,0.0,0.9,-0.00017,-0.00025,39.5,43.5,8,0,.,.,5.78,0.00,0.00
15min,AgWx,beryljct,423,14NOV2019:02:15:00,25.1,12.79,23.1,22.6,23.0,23.3,22.6,65,67,60,0.274,12.9,13.5,11.0,0.789,0.5,132,0.0,1.6,-0.00016,-0.00024,39.4,43.4,8,0,.,.,5.78,0.00,0.00
15min,AgWx,beryljct,423,14NOV2019:02:30:00,24.8,12.78,23.2,22.9,22.9,23.2,22.6,63,66,56,0.237,12.2,13.2,9.7,2.148,1.1,106,71,2.3,-0.00011,-0.00015,39.2,43.3,8,0,.,.,5.78,0.00,0.00
15min,AgWx,beryljct,423,14NOV2019:02:45:00,24.7,12.77,20.8,20.6,21.8,22.9,20.5,55,57,53,0.214,8.2,9.6,6.8,2.214,2.5,337,8.6,3.0,-0.00003,-0.00002,39.1,43.3,8,0,.,.,5.78,0.00,0.00
15min,AgWx,beryljct,423,14NOV2019:03:00:00,24.3,12.76,20.1,19.4,20.0,20.8,19.2,58,63,54,0.227,7.7,8.8,6.6,1.008,2.1,344,1.8,3.5,-0.00005,-0.00005,39.0,43.3,8,0,.,.,5.78,0.00,0.00
15min,AgWx,beryljct,423,14NOV2019:03:15:00,23.7,12.75,20.8,20.5,20.2,21.1,19.4,63,70,58,0.265,9.7,12.2,8.6,0,0.4,28,38,1.8,-0.00015,-0.00022,38.9,43.2,8,0,.,.,5.78,0.00,0.00
15min,AgWx,beryljct,423,14NOV2019:03:30:00,23.4,12.74,20.3,20.0,20.4,20.9,20.0,71,73,70,0.269,12.6,13.2,12.3,2.894,1.6,184,15,3.0,-0.00009,-0.00011,38.7,43.2,8,0,.,.,5.78,0.00,0.00
15min,AgWx,beryljct,423,14NOV2019:03:45:00,23.0,12.74,21.3,20.9,21.0,21.8,20.0,67,73,63,0.257,11.6,12.6,10.9,2.411,2.6,185,2.9,3.2,-0.00004,-0.00004,38.6,43.1,8,0,.,.,5.78,0.00,0.00
15min,AgWx,beryljct,423,14NOV2019:04:00:00,22.9,12.72,22.2,21.8,21.3,21.8,20.9,72,74,67,0.283,13.7,14.4,11.6,1.885,1.7,195,1.0,2.6,-0.00009,-0.00011,38.5,43.0,8,0,.,.,5.78,0.00,0.00
15min,AgWx,beryljct,423,14NOV2019:04:15:00,22.9,12.72,23.8,22.5,22.7,24.2,21.8,69,76,61,0.298,14.0,16.1,12.6,0.702,1.3,196,0.1,2.4,-0.00011,-0.00014,38.4,43.0,8,0,.,.,5.78,0.00,0.00
15min,AgWx,beryljct,423,14NOV2019:04:30:00,23.0,12.7,22.6,23.7,24.1,25.2,22.7,60,71,55,0.280,12.3,14.8,10.7,4.911,0.8,180,32,4.9,-0.00014,-0.00020,38.3,42.9,8,0,.,.,5.78,0.00,0.00
15min,AgWx,beryljct,423,14NOV2019:04:45:00,23.0,12.7,19.5,19.4,20.7,23.4,19.3,69,72,65,0.239,12.2,13.6,9.9,2.762,2.8,147,22,5.0,-0.00004,-0.00004,38.2,42.9,8,0,.,.,5.78,0.00,0.00
15min,AgWx,beryljct,423,14NOV2019:05:00:00,22.5,12.7,19.4,18.7,18.4,19.4,17.9,67,70,63,0.232,9.2,9.8,7.9,2.061,2.1,156,2.7,3.0,-0.00006,-0.00006,38.1,42.8,8,0,.,.,5.78,0.00,0.00
15min,AgWx,beryljct,423,14NOV2019:05:15:00,21.9,12.69,19.4,19.1,19.2,19.6,18.8,69,73,65,0.261,10.8,11.9,9.3,0,1.4,136,6.0,2.6,-0.00009,-0.00012,37.9,42.8,8,0,.,.,5.78,0.00,0.00
15min,AgWx,beryljct,423,14NOV2019:05:30:00,21.5,12.68,20.5,19.8,19.2,19.8,18.9,68,74,62,0.227,10.5,12.1,8.8,0,1.2,187,14,2.9,-0.00010,-0.00013,37.8,42.7,8,0,.,.,5.78,0.00,0.00
15min,AgWx,beryljct,423,14NOV2019:05:45:00,21.1,12.68,16.9,16.5,17.9,20.5,16.3,63,66,57,0.210,7.5,8.7,6.5,2.083,2.0,325,36,3.7,-0.00005,-0.00006,37.7,42.7,8,0,.,.,5.78,0.00,0.00
15min,AgWx,beryljct,423,14NOV2019:06:00:00,20.6,12.67,17.8,17.2,16.5,17.2,16.1,64,66,60,0.198,6.3,7.0,5.5,1.469,2.1,328,3.8,2.9,-0.00005,-0.00005,37.6,42.6,8,0,.,.,5.79,0.01,0.00
15min,AgWx,beryljct,423,14NOV2019:06:15:00,20.4,12.66,19.0,18.5,18.3,18.8,17.2,61,62,59,0.216,6.9,7.7,5.8,1.052,1.5,326,0.0,2.4,-0.00007,-0.00009,37.5,42.6,8,0,.,.,5.79,0.00,0.00
15min,AgWx,beryljct,423,14NOV2019:06:30:00,20.6,12.66,21.6,21.2,19.9,21.2,18.5,67,71,62,0.260,10.9,12.1,7.7,1.447,0.3,326,0.1,1.6,0.00002,0.00003,37.4,42.5,8,0,.,.,5.78,0.00,0.00
15min,AgWx,beryljct,423,14NOV2019:06:45:00,21.0,12.65,19.9,19.6,20.7,21.5,19.6,71,72,67,0.262,12.7,13.7,11.8,1.403,1.8,161,38,2.5,0.00007,0.00012,37.3,42.4,8,0,.,.,5.78,0.00,0.00
15min,AgWx,beryljct,423,14NOV2019:07:00:00,21.0,12.66,19.0,19.0,19.4,19.8,19.0,66,71,63,0.236,10.0,11.9,8.9,0.986,1.7,168,3.7,2.8,0.00008,0.00013,37.2,42.4,8,1,.,.,5.78,0.00,0.00
15min,AgWx,beryljct,423,14NOV2019:07:15:00,20.9,12.66,20.8,20.3,19.1,20.4,18.7,67,70,64,0.240,9.9,10.7,9.0,2.543,1.8,173,3.0,2.9,0.00009,0.00014,37.1,42.3,8,5,.,.,5.78,0.00,0.00
15min,AgWx,beryljct,423,14NOV2019:07:30:00,20.9,12.79,21.4,20.8,20.3,20.8,19.9,68,74,64,0.283,11.5,13.7,10.0,1.25,1.7,176,0.0,2.5,0.00014,0.00020,37.0,42.3,8,24,.,.,5.79,0.00,0.00
15min,AgWx,beryljct,423,14NOV2019:07:45:00,21.4,12.83,22.8,22.5,21.9,22.7,20.8,67,74,62,0.262,12.5,14.1,11.3,1.513,1.1,176,0.1,1.8,0.00020,0.00025,36.9,42.2,9,45,.,.,5.78,0.00,0.00
15min,AgWx,beryljct,423,14NOV2019:08:00:00,22.5,13.2,26.1,25.6,24.0,25.7,22.4,67,69,64,0.316,14.6,16.7,12.0,1.578,1.2,176,0.0,1.6,0.00032,0.00038,36.8,42.2,8,93,.,.,5.78,0.00,0.00
15min,AgWx,beryljct,423,14NOV2019:08:15:00,24.4,13.35,26.7,26.3,26.3,26.7,25.6,66,69,61,0.332,16.3,17.5,15.1,0.504,1.0,170,8.7,1.8,0.00036,0.00042,36.7,42.1,8,90,.,.,5.78,0.00,0.00
15min,AgWx,beryljct,423,14NOV2019:08:30:00,25.9,14.66,28.0,27.4,26.7,27.4,26.3,69,72,67,0.341,18.0,18.8,17.3,0.921,0.2,157,0.0,0.9,0.00040,0.00043,36.6,42.1,8,110,.,.,5.78,0.00,0.00
15min,AgWx,beryljct,423,14NOV2019:08:45:00,28.0,14.8,31.4,29.9,28.5,29.9,27.5,64,68,60,0.338,17.9,18.6,17.4,0,0.9,13,44,2.0,0.00066,0.00073,36.6,42.0,8,191,.,.,5.78,0.00,0.00
15min,AgWx,beryljct,423,14NOV2019:09:00:00,31.0,14.76,31.3,31.5,30.6,32.2,30.0,64,67,59,0.375,19.7,21.5,17.7,0,0.8,86,18,2.8,0.00089,0.00098,36.5,42.0,8,257,.,.,5.78,0.00,0.00
15min,AgWx,beryljct,423,14NOV2019:09:15:00,34.2,14.69,34.9,34.3,32.8,34.3,31.3,61,64,59,0.407,21.0,22.2,20.2,0.68,0.1,100,0.3,0.7,0.00105,0.00113,36.5,41.9,8,293,.,.,5.77,0.00,0.00
15min,AgWx,beryljct,423,14NOV2019:09:30:00,37.5,14.65,37.1,36.9,35.8,36.9,34.3,56,61,53,0.400,21.7,23.2,20.5,3.551,1.9,89,16,3.6,0.00124,0.00143,36.4,41.9,8,309,.,.,5.77,0.00,0.00
15min,AgWx,beryljct,423,14NOV2019:09:45:00,39.8,14.62,39.7,39.7,38.0,39.7,36.9,51,55,47,0.389,21.6,22.9,20.6,0,1.7,128,14,3.8,0.00139,0.00159,36.4,41.8,8,328,.,.,5.77,0.00,0.00
15min,AgWx,beryljct,423,14NOV2019:10:00:00,42.4,14.6,41.9,41.5,40.7,41.5,39.7,42,46,39,0.357,19.3,20.9,18.2,0.044,0.5,26,40,2.0,0.00159,0.00174,36.3,41.8,8,370,.,.,5.77,0.00,0.00
15min,AgWx,beryljct,423,14NOV2019:10:15:00,45.4,14.56,45.4,44.6,43.0,44.6,41.6,38,40,36,0.361,19.3,19.9,18.6,1.907,1.2,344,15,3.3,0.00199,0.00223,36.3,41.7,8,447,.,.,5.77,0.00,0.00
15min,AgWx,beryljct,423,14NOV2019:10:30:00,48.2,14.53,47.0,45.8,45.3,46.0,44.7,33,36,33,0.349,18.2,19.6,17.6,2.872,2.8,20,16,4.7,0.00208,0.00249,36.3,41.7,8,414,.,.,5.76,0.00,0.00
15min,AgWx,beryljct,423,14NOV2019:10:45:00,50.2,14.47,48.1,48.3,46.9,48.4,46.0,32,34,30,0.344,18.7,19.6,17.9,0.921,1.6,40,14,3.6,0.00236,0.00269,36.3,41.6,8,492,.,.,5.77,0.00,0.00
15min,AgWx,beryljct,423,14NOV2019:11:00:00,52.5,14,49.8,48.8,48.5,49.1,47.8,30,32,30,0.348,18.7,19.5,17.9,0,1.3,11,19,3.0,0.00246,0.00277,36.3,41.6,8,503,.,.,5.76,0.00,0.00
15min,AgWx,beryljct,423,14NOV2019:11:15:00,54.5,14.02,51.2,49.9,49.7,50.3,48.9,30,31,29,0.362,19.4,20.5,18.5,2.543,1.8,79,31,4.8,0.00265,0.00304,36.3,41.5,8,527,.,.,5.76,0.00,0.00
15min,AgWx,beryljct,423,14NOV2019:11:30:00,55.7,13.94,50.4,51.5,50.8,51.7,50.1,30,31,29,0.377,20.5,21.6,19.7,2.565,1.6,84,29,4.8,0.00237,0.00273,36.4,41.5,8,452,.,.,5.75,0.00,0.00
15min,AgWx,beryljct,423,14NOV2019:11:45:00,56.4,13.93,51.5,51.5,51.5,51.9,50.9,29,31,28,0.368,20.4,21.7,19.4,0.132,1.3,81,79,3.5,0.00226,0.00257,36.6,41.4,8,428,.,.,5.75,0.00,0.00
15min,AgWx,beryljct,423,14NOV2019:12:00:00,56.7,14.02,51.9,52.9,52.2,53.4,51.4,29,31,28,0.382,21.1,23.0,19.9,1.885,1.7,60,23,3.9,0.00250,0.00288,36.9,41.4,8,476,.,.,5.75,0.00,0.00
15min,AgWx,beryljct,423,14NOV2019:12:15:00,57.7,13.88,54.5,55.0,53.9,55.2,52.7,27,29,25,0.371,21.0,22.2,20.0,1.491,2.0,72,37,4.0,0.00291,0.00337,37.2,41.3,8,556,.,.,5.74,0.00,0.00
15min,AgWx,beryljct,423,14NOV2019:12:30:00,58.9,13.88,55.1,56.1,55.4,56.1,54.8,26,28,25,0.406,21.2,23.0,19.9,2.938,2.0,80,58,3.8,0.00293,0.00339,37.6,41.3,8,550,.,.,5.74,0.00,0.00
15min,AgWx,beryljct,423,14NOV2019:12:45:00,59.9,13.86,55.7,56.1,55.9,56.7,55.3,25,26,24,0.372,20.7,21.9,20.0,1.644,1.3,64,65,3.8,0.00244,0.00279,38.1,41.3,8,458,.,.,5.74,0.00,0.00
15min,AgWx,beryljct,423,14NOV2019:13:00:00,60.9,13.81,57.1,57.8,57.2,58.7,56.1,24,25,23,0.402,20.8,21.9,19.8,1.841,1.0,42,31,3.1,0.00255,0.00287,38.6,41.3,8,491,.,.,5.74,0.00,0.00
15min,AgWx,beryljct,423,14NOV2019:13:15:00,62.2,13.78,58.1,58.4,58.2,59.0,57.6,24,25,23,0.385,21.3,23.5,20.4,1.6,2.1,53,44,6.0,0.00274,0.00322,39.1,41.2,8,500,.,.,5.74,0.00,0.00
15min,AgWx,beryljct,423,14NOV2019:13:30:00,62.8,13.77,60.6,59.5,59.0,59.6,58.4,23,24,22,0.415,21.5,22.6,20.6,2.083,2.7,79,20,4.9,0.00247,0.00303,39.7,41.2,8,432,.,.,5.73,0.00,0.00
15min,AgWx,beryljct,423,14NOV2019:13:45:00,63.1,13.72,60.1,60.4,59.9,60.4,59.4,23,24,22,0.392,21.5,23.3,20.7,0.833,1.5,91,18,5.0,0.00205,0.00242,40.3,41.2,8,382,.,.,5.73,0.00,0.00
15min,AgWx,beryljct,423,14NOV2019:14:00:00,63.8,13.78,63.7,61.9,60.8,61.9,60.3,22,24,22,0.450,21.9,24.6,21.1,3.069,1.2,77,19,5.0,0.00238,0.00273,40.8,41.2,8,454,.,.,5.73,0.00,0.00
15min,AgWx,beryljct,423,14NOV2019:14:15:00,65.2,13.73,65.4,65.0,63.6,65.1,62.0,21,24,19,0.400,23.4,25.1,21.4,5.744,3.8,114,37,8.4,0.00248,0.00323,41.4,41.2,8,392,.,.,5.73,0.00,0.00
15min,AgWx,beryljct,423,14NOV2019:14:30:00,66.1,13.74,65.9,66.0,66.0,66.6,65.0,18,20,17,0.392,21.3,23.0,20.1,10.85,7.5,182,15,13.1,0.00259,0.00390,41.9,41.3,8,278,.,.,5.73,0.01,0.00
15min,AgWx,beryljct,423,14NOV2019:14:45:00,66.2,13.76,65.6,65.7,65.9,66.1,65.7,18,19,17,0.371,20.8,22.2,19.8,9.71,11.0,196,9.5,14.9,0.00298,0.00471,42.4,41.3,8,271,.,.,5.73,0.00,0.00
15min,AgWx,beryljct,423,14NOV2019:15:00:00,66.0,13.77,65.3,65.2,65.5,65.8,65.2,18,19,17,0.386,20.5,21.9,19.5,14.1,10.5,201,9.2,15.4,0.00259,0.00423,42.9,41.4,8,204,.,.,5.73,0.00,0.00
15min,AgWx,beryljct,423,14NOV2019:15:15:00,65.4,13.74,66.0,65.7,65.1,65.7,64.8,18,20,16,0.395,20.9,23.1,18.7,7.388,9.5,195,11,13.9,0.00244,0.00396,43.3,41.4,8,222,.,.,5.73,0.00,0.00
15min,AgWx,beryljct,423,14NOV2019:15:30:00,65.9,13.77,65.6,65.8,66.2,66.7,65.7,17,19,16,0.380,20.7,22.4,19.5,7.366,9.9,204,12,13.0,0.00321,0.00485,43.6,41.5,8,339,.,.,5.73,0.00,0.00
15min,AgWx,beryljct,423,14NOV2019:15:45:00,66.1,13.72,66.4,66.1,65.8,66.1,65.5,17,18,16,0.362,20.0,21.0,19.1,10.19,8.8,192,12,12.1,0.00263,0.00409,43.9,41.6,8,271,.,.,5.73,0.00,0.00
15min,AgWx,beryljct,423,14NOV2019:16:00:00,66.6,13.74,65.1,65.1,66.0,66.6,65.1,17,18,16,0.360,19.6,20.8,18.1,9.01,9.2,201,11,13.6,0.00259,0.00412,44.2,41.7,8,244,.,.,5.73,0.00,0.00
15min,AgWx,beryljct,423,14NOV2019:16:15:00,65.7,13.78,64.2,63.9,64.3,65.1,63.8,17,18,17,0.352,19.2,20.4,18.3,12.41,9.0,196,7.8,13.1,0.00170,0.00310,44.4,41.8,8,103,.,.,5.73,0.00,0.00
15min,AgWx,beryljct,423,14NOV2019:16:30:00,64.3,13.41,62.2,62.5,63.3,64.0,62.4,18,19,17,0.352,18.7,19.3,17.9,9.08,9.9,188,7.3,13.6,0.00105,0.00133,44.6,41.9,8,66,.,.,5.74,0.01,0.00
15min,AgWx,beryljct,423,14NOV2019:16:45:00,62.6,13.33,61.4,61.7,61.7,62.6,61.4,19,20,18,0.349,19.2,19.6,18.6,7.41,7.9,190,6.2,11.4,0.00087,0.00113,44.8,42.0,8,63,.,.,5.74,0.00,0.00
15min,AgWx,beryljct,423,14NOV2019:17:00:00,61.4,13.24,61.1,60.7,61.3,61.8,60.6,19,21,18,0.365,19.0,20.1,18.2,8.24,7.1,201,7.8,9.4,0.00076,0.00101,44.9,42.1,8,46,.,.,5.74,0.00,0.00
15min,AgWx,beryljct,423,14NOV2019:17:15:00,60.3,13.17,59.8,60.0,60.2,61.0,59.6,20,22,19,0.350,19.5,20.8,18.2,4.713,6.0,223,12,9.9,0.00059,0.00081,45.0,42.2,8,21,.,.,5.74,0.00,0.00
15min,AgWx,beryljct,423,14NOV2019:17:30:00,58.9,13.13,58.7,57.4,59.1,60.1,57.2,20,22,19,0.345,18.5,20.2,17.3,4.165,4.4,238,8.5,7.1,0.00038,0.00056,45.0,42.3,8,4,.,.,5.74,0.00,0.00
15min,AgWx,beryljct,423,14NOV2019:17:45:00,57.4,13.11,58.1,57.1,57.4,58.2,56.0,22,25,20,0.352,18.4,21.1,16.8,3.529,3.5,229,9.2,4.6,0.00022,0.00036,45.0,42.4,8,1,.,.,5.74,0.00,0.00
15min,AgWx,beryljct,423,14NOV2019:18:00:00,55.8,13.08,58.1,58.0,57.0,58.1,55.4,21,25,19,0.319,17.8,20.4,16.4,1.666,2.2,221,8.1,3.6,0.00004,0.00011,45.0,42.5,8,0,.,.,5.75,0.01,0.00
15min,AgWx,beryljct,423,14NOV2019:18:15:00,55.0,13.09,56.0,57.0,57.9,58.4,57.0,19,20,19,0.310,16.2,16.7,15.8,4.341,3.6,243,5.5,4.7,0.00025,0.00040,45.0,42.6,8,0,.,.,5.74,0.00,0.00
15min,AgWx,beryljct,423,14NOV2019:18:30:00,53.9,13.07,47.8,48.5,52.7,56.9,48.5,27,36,20,0.414,19.1,22.5,15.7,2.653,4.9,248,10,6.6,0.00033,0.00047,44.9,42.7,8,0,.,.,5.74,0.00,0.00
15min,AgWx,beryljct,423,14NOV2019:18:45:00,51.9,13.06,49.5,47.8,48.3,49.0,47.0,34,37,31,0.388,20.9,22.6,19.6,4.801,3.9,242,8.6,5.2,0.00017,0.00026,44.8,42.8,8,0,.,.,5.75,0.00,0.00
15min,AgWx,beryljct,423,14NOV2019:19:00:00,50.6,13.05,50.1,49.8,51.3,52.8,48.0,27,34,24,0.377,18.6,21.0,17.2,2.324,4.0,248,9.3,5.9,0.00023,0.00035,44.7,42.9,8,0,.,.,5.75,0.00,0.00
15min,AgWx,beryljct,423,14NOV2019:19:15:00,49.6,13.04,49.8,49.7,50.0,51.5,48.9,31,33,27,0.368,20.2,21.3,18.9,1.929,1.5,205,17,2.8,-0.00011,-0.00012,44.5,43.0,8,0,.,.,5.75,0.00,0.00
15min,AgWx,beryljct,423,14NOV2019:19:30:00,48.7,13.03,51.0,49.4,49.7,50.7,48.9,29,30,28,0.336,18.6,19.5,17.7,3.135,2.5,214,21,4.4,0.00004,0.00010,44.3,43.0,8,0,.,.,5.75,0.00,0.00
15min,AgWx,beryljct,423,14NOV2019:19:45:00,48.5,13.01,51.1,51.5,51.8,53.2,49.6,24,28,23,0.314,16.5,17.6,16.1,2.017,3.3,227,8.6,4.1,0.00016,0.00027,44.2,43.1,8,0,.,.,5.75,0.00,0.00
15min,AgWx,beryljct,423,14NOV2019:20:00:00,48.3,13.01,53.2,51.5,51.2,53.1,50.0,26,28,24,0.328,17.6,18.9,16.1,2.674,2.6,204,20,3.9,0.00007,0.00015,44.0,43.2,8,0,.,.,5.75,0.00,0.00
15min,AgWx,beryljct,423,14NOV2019:20:15:00,48.2,13,46.4,45.7,50.6,52.7,45.7,27,36,23,0.378,17.7,20.4,16.0,4.428,3.5,222,11,5.4,0.00018,0.00028,43.9,43.3,8,0,.,.,5.75,0.00,0.00
15min,AgWx,beryljct,423,14NOV2019:20:30:00,47.2,13,46.2,47.3,46.9,49.4,43.3,32,41,26,0.332,18.1,21.4,15.6,2.148,1.6,282,37,4.5,-0.00007,-0.00007,43.7,43.3,8,0,.,.,5.75,0.00,0.00
15min,AgWx,beryljct,423,14NOV2019:20:45:00,46.2,12.99,46.7,45.4,46.3,47.4,44.7,31,35,29,0.345,17.4,18.5,16.4,0.658,0.8,229,23,4.5,-0.00020,-0.00028,43.5,43.4,8,0,.,.,5.75,0.00,0.00
15min,AgWx,beryljct,423,14NOV2019:21:00:00,45.4,12.98,45.8,44.2,43.8,45.8,42.0,38,42,33,0.385,19.9,21.0,18.0,3.091,2.4,229,19,3.5,-0.00000,0.00003,43.3,43.4,8,0,.,.,5.75,0.00,0.00
15min,AgWx,beryljct,423,14NOV2019:21:15:00,44.7,12.95,52.0,49.8,46.6,50.0,44.3,34,39,27,0.329,19.5,21.2,17.2,3.595,2.3,252,16,3.7,0.00001,0.00005,43.2,43.4,8,0,.,.,5.75,0.00,0.00
15min,AgWx,beryljct,423,14NOV2019:21:30:00,44.6,12.95,46.6,44.7,46.0,50.9,43.6,37,42,26,0.384,20.9,22.1,16.7,0,1.2,223,31,3.6,-0.00014,-0.00017,43.0,43.5,8,0,.,.,5.75,0.00,0.00
15min,AgWx,beryljct,423,14NOV2019:21:45:00,44.3,12.95,43.7,43.9,45.8,46.9,43.9,36,41,34,0.402,20.4,22.1,19.6,2.872,1.0,228,1.6,2.9,-0.00019,-0.00026,42.8,43.5,8,0,.,.,5.75,0.00,0.00
15min,AgWx,beryljct,423,14NOV2019:22:00:00,44.1,12.95,43.3,48.6,44.1,49.1,42.1,41,47,29,0.356,21.8,23.2,18.3,1.798,2.2,240,13,3.6,-0.00002,0.00000,42.6,43.5,8,0,.,.,5.76,0.00,0.00
15min,AgWx,beryljct,423,14NOV2019:22:15:00,43.9,12.93,46.8,44.1,44.2,48.1,42.8,38,46,32,0.325,20.1,23.5,16.3,1.052,1.7,179,34,4.0,-0.00008,-0.00007,42.4,43.5,8,0,.,.,5.75,0.00,0.00
15min,AgWx,beryljct,423,14NOV2019:22:30:00,43.6,12.92,49.4,47.0,43.9,47.0,42.4,35,39,32,0.350,17.8,20.3,15.7,2.148,2.4,202,22,4.7,0.00001,0.00005,42.3,43.6,8,0,.,.,5.76,0.00,0.00
15min,AgWx,beryljct,423,14NOV2019:22:45:00,43.6,12.92,41.4,42.5,44.4,49.8,41.8,40,48,27,0.375,21.1,23.9,17.5,1.82,0.9,276,28,2.3,-0.00018,-0.00025,42.2,43.6,8,0,.,.,5.76,0.00,0.00
15min,AgWx,beryljct,423,14NOV2019:23:00:00,43.4,12.91,44.2,44.3,43.4,44.3,42.2,36,41,32,0.313,17.9,20.2,15.9,2.477,2.0,326,17,2.9,-0.00004,-0.00002,42.0,43.6,8,0,.,.,5.76,0.00,0.00
15min,AgWx,beryljct,423,14NOV2019:23:15:00,43.6,12.89,47.6,47.1,44.6,47.1,43.1,33,37,31,0.337,17.3,19.9,16.0,1.951,2.4,313,11,3.5,0.00001,0.00006,41.9,43.6,9,0,.,.,5.76,0.00,0.00
15min,AgWx,beryljct,423,14NOV2019:23:30:00,43.9,12.9,47.5,47.1,46.1,47.2,45.0,33,38,29,0.320,18.6,20.9,16.6,2.762,2.2,308,0.4,3.0,-0.00001,0.00002,41.8,43.6,8,0,.,.,5.76,0.00,0.00
15min,AgWx,bigpiney,439,14NOV2019:00:00:00,20.4,12.69,18.9,18.4,19.4,20.9,18.4,81,84,78,0.288,14.6,16.1,13.2,6.072,5.5,221,14,7.3,-0.00002,-0.00002,33.3,34.9,49,0,0,0.0,5.53,0.00,0.00
15min,AgWx,bigpiney,439,14NOV2019:00:15:00,20.4,12.68,19.3,18.6,18.1,18.6,17.2,84,85,82,0.294,14.0,14.6,12.8,5.656,4.7,233,26,6.4,-0.00004,-0.00004,33.3,35.0,49,0,0,0.0,5.53,0.00,0.00
15min,AgWx,bigpiney,439,14NOV2019:00:30:00,20.4,12.68,17.8,17.5,17.9,18.7,17.2,84,86,83,0.287,14.0,14.6,13.4,1.688,3.6,249,8.1,5.6,-0.00005,-0.00006,33.3,34.9,49,0,0,0.0,5.53,0.00,0.00
15min,AgWx,bigpiney,439,14NOV2019:00:45:00,20.2,12.67,20.2,20.6,19.5,21.7,17.2,84,87,79,0.303,15.5,16.9,13.4,1.425,2.1,276,16,2.9,-0.00009,-0.00011,33.3,35.0,49,0,0,0.0,5.53,0.00,0.00
15min,AgWx,bigpiney,439,14NOV2019:01:00:00,20.0,12.66,15.6,16.4,19.1,20.6,16.4,83,84,80,0.261,14.7,15.9,11.9,4.647,1.7,198,65,5.4,-0.00010,-0.00013,33.3,35.0,49,0,0,0.0,5.53,0.00,0.00
15min,AgWx,bigpiney,439,14NOV2019:01:15:00,19.7,12.66,19.6,19.5,17.1,19.7,15.7,85,88,82,0.303,13.5,16.0,11.4,3.091,4.9,237,14,6.2,-0.00004,-0.00004,33.3,35.0,49,0,0,0.0,5.53,0.00,0.00
15min,AgWx,bigpiney,439,14NOV2019:01:30:00,19.5,12.66,21.4,21.8,20.7,22.2,19.2,82,85,79,0.318,16.2,17.3,14.8,1.995,3.1,284,18,4.3,-0.00007,-0.00007,33.3,34.9,49,0,0,0.0,5.53,0.00,0.00
15min,AgWx,bigpiney,439,14NOV2019:01:45:00,19.5,12.65,14.9,14.3,15.7,21.8,14.1,84,88,75,0.255,11.6,16.3,10.2,3.201,4.5,64,18,7.4,-0.00004,-0.00004,33.3,35.0,49,0,0,0.0,5.53,0.00,0.00
15min,AgWx,bigpiney,439,14NOV2019:02:00:00,18.9,12.63,17.3,16.4,15.3,16.4,14.3,88,89,88,0.281,12.4,13.6,11.4,1.271,1.9,101,9.3,3.5,-0.00009,-0.00012,33.3,35.0,49,0,0,0.0,5.53,0.00,0.00
15min,AgWx,bigpiney,439,14NOV2019:02:15:00,18.3,12.64,17.4,16.7,16.7,17.3,16.1,88,89,86,0.282,13.7,14.4,12.7,1.03,0.9,113,40,1.8,-0.00013,-0.00018,33.3,35.0,49,0,0,0.0,5.53,0.00,0.00
15min,AgWx,bigpiney,439,14NOV2019:02:30:00,17.8,12.63,18.5,18.4,16.6,18.4,13.4,88,92,83,0.301,13.7,15.3,9.3,1.271,2.1,263,54,5.0,-0.00009,-0.00011,33.3,35.0,49,0,0,0.0,5.53,0.00,0.00
15min,AgWx,bigpiney,439,14NOV2019:02:45:00,17.4,12.63,13.1,14.8,17.8,18.5,14.8,86,87,83,0.247,14.4,15.2,10.7,3.266,2.4,298,27,3.7,-0.00009,-0.00010,33.3,34.9,49,0,0,0.0,5.53,0.00,0.00
15min,AgWx,bigpiney,439,14NOV2019:03:00:00,16.9,12.62,15.2,16.9,14.9,18.6,12.3,88,92,82,0.275,12.1,16.2,8.3,6.27,4.1,232,9.3,6.4,-0.00005,-0.00006,33.3,35.0,49,0,0,0.0,5.53,0.00,0.00
15min,AgWx,bigpiney,439,14NOV2019:03:15:00,16.5,12.62,19.4,18.3,16.1,18.3,15.1,88,91,83,0.307,13.1,15.6,11.4,2.718,4.4,226,7.6,6.6,-0.00005,-0.00005,33.3,34.9,49,0,0,0.0,5.53,0.00,0.00
15min,AgWx,bigpiney,439,14NOV2019:03:30:00,16.3,12.61,20.9,19.6,16.4,19.6,13.5,87,93,83,0.321,13.1,16.7,9.6,2.368,3.8,212,21,5.8,-0.00005,-0.00006,33.3,34.9,49,0,0,0.0,5.53,0.00,0.00
15min,AgWx,bigpiney,439,14NOV2019:03:45:00,16.1,12.61,14.4,14.3,16.1,19.9,13.3,86,89,80,0.258,12.6,16.8,9.6,3.508,3.9,213,11,5.3,-0.00005,-0.00006,33.3,34.9,49,0,0,0.0,5.53,0.00,0.00
15min,AgWx,bigpiney,439,14NOV2019:04:00:00,15.8,12.6,15.3,14.5,13.7,15.7,12.0,88,91,86,0.252,10.8,13.3,8.5,5.174,4.2,215,8.5,6.0,-0.00005,-0.00005,33.3,35.0,49,0,0,0.0,5.53,0.00,0.00
15min,AgWx,bigpiney,439,14NOV2019:04:15:00,15.4,12.6,12.3,11.8,13.6,16.4,11.5,86,90,83,0.226,10.3,13.7,7.5,6.335,5.0,212,6.9,6.3,-0.00003,-0.00004,33.3,35.0,49,0,0,0.0,5.53,0.00,0.00
15min,AgWx,bigpiney,439,14NOV2019:04:30:00,15.0,12.6,16.1,13.3,12.3,13.4,11.5,88,89,87,0.244,9.3,10.6,8.3,1.863,4.2,214,7.6,6.3,-0.00004,-0.00005,33.3,35.0,49,0,0,0.0,5.53,0.00,0.00
15min,AgWx,bigpiney,439,14NOV2019:04:45:00,14.7,12.59,13.8,14.0,12.7,14.1,11.9,87,90,85,0.255,9.6,11.7,8.6,4.362,4.4,205,6.2,5.7,-0.00004,-0.00004,33.3,35.0,49,0,0,0.0,5.53,0.00,0.00
15min,AgWx,bigpiney,439,14NOV2019:05:00:00,14.4,12.59,12.9,11.9,12.5,13.9,11.3,87,88,85,0.228,9.3,11.1,7.8,4.647,4.3,227,9.1,5.0,-0.00004,-0.00004,33.3,35.0,49,0,0,0.0,5.53,0.00,0.00
15min,AgWx,bigpiney,439,14NOV2019:05:15:00,14.3,12.59,13.5,12.7,12.8,13.9,12.1,87,88,85,0.234,9.5,11.0,8.9,4.275,4.2,246,7.2,4.8,-0.00004,-0.00005,33.3,34.9,49,0,0,0.0,5.53,0.00,0.00
15min,AgWx,bigpiney,439,14NOV2019:05:30:00,14.0,12.58,14.1,13.8,13.9,14.6,12.8,87,89,83,0.243,10.7,11.6,9.1,3.924,3.6,259,6.0,4.5,-0.00005,-0.00006,33.3,34.9,49,0,0,0.0,5.53,0.00,0.00
15min,AgWx,bigpiney,439,14NOV2019:05:45:00,13.8,12.58,15.4,15.2,13.5,15.8,11.4,86,90,83,0.256,10.1,12.8,7.6,2.916,3.3,268,10,4.4,-0.00006,-0.00006,33.3,34.9,49,0,0,0.0,5.53,0.00,0.00
15min,AgWx,bigpiney,439,14NOV2019:06:00:00,13.7,12.58,12.2,12.5,14.4,16.2,12.5,85,87,81,0.227,10.8,13.0,8.8,2.653,2.5,279,9.4,3.3,-0.00007,-0.00008,33.3,35.0,49,0,0,0.0,5.53,0.00,0.00
15min,AgWx,bigpiney,439,14NOV2019:06:15:00,13.5,12.57,13.4,12.3,11.2,12.4,9.8,86,89,83,0.233,7.9,9.8,6.0,1.578,2.3,235,21,3.3,-0.00007,-0.00008,33.3,34.9,49,0,0,0.0,5.53,0.00,0.00
15min,AgWx,bigpiney,439,14NOV2019:06:30:00,13.3,12.57,14.2,13.4,13.1,13.5,12.3,87,89,87,0.242,10.1,10.5,9.3,2.17,1.4,279,35,2.4,-0.00010,-0.00013,33.3,34.8,49,0,0,0.0,5.53,0.00,0.00
15min,AgWx,bigpiney,439,14NOV2019:06:45:00,13.2,12.56,11.3,11.6,11.9,13.7,11.2,86,88,85,0.222,8.6,10.7,7.7,1.951,2.6,200,7.1,3.7,-0.00006,-0.00008,33.3,34.9,49,0,0,0.0,5.53,0.00,0.00
15min,AgWx,bigpiney,439,14NOV2019:07:00:00,13.1,12.56,12.7,12.3,12.0,12.4,11.3,87,88,86,0.234,8.9,9.5,7.8,0.921,1.4,211,10,2.0,-0.00009,-0.00012,33.3,35.0,49,1,0,0.0,5.53,0.00,0.00
15min,AgWx,bigpiney,439,14NOV2019:07:15:00,12.9,12.71,14.6,12.9,11.7,12.9,10.6,87,90,84,0.241,8.6,10.2,6.8,3.332,3.7,205,7.2,5.9,-0.00004,-0.00005,33.3,35.0,49,7,0,0.0,5.53,0.00,0.00
15min,AgWx,bigpiney,439,14NOV2019:07:30:00,12.9,14.99,14.0,12.8,12.5,13.5,11.9,86,89,85,0.236,9.1,10.6,8.3,3.003,3.6,210,5.7,4.9,-0.00010,-0.00007,33.3,34.9,49,34,0,0.0,5.53,0.00,0.00
15min,AgWx,bigpiney,439,14NOV2019:07:45:00,13.3,15.08,13.6,13.8,13.8,14.8,12.9,86,88,84,0.239,10.4,11.3,9.8,1.841,0.7,215,40,3.0,-0.00008,-0.00008,33.3,34.9,49,65,0,0.0,5.53,0.00,0.00
15min,AgWx,bigpiney,439,14NOV2019:08:00:00,14.3,15.01,14.2,13.4,12.8,13.8,12.1,86,87,84,0.240,9.3,10.0,8.4,1.513,1.0,62,20,1.9,0.00005,0.00006,33.3,35.0,49,109,0,0.0,5.53,0.00,0.00
15min,AgWx,bigpiney,439,14NOV2019:08:15:00,15.8,15.01,16.8,16.4,15.1,16.8,13.5,86,88,86,0.273,11.7,13.6,10.1,3.047,2.3,32,8.7,3.5,0.00023,0.00027,33.3,34.9,49,171,0,0.0,5.53,0.00,0.00
15min,AgWx,bigpiney,439,14NOV2019:08:30:00,17.9,15,19.8,19.5,18.1,19.7,16.5,86,87,85,0.309,14.5,16.2,12.9,1.6,1.8,68,22,3.3,0.00042,0.00046,33.3,34.9,49,224,0,0.0,5.53,0.00,0.00
15min,AgWx,bigpiney,439,14NOV2019:08:45:00,20.0,14.98,19.5,19.2,19.0,19.4,18.9,85,86,84,0.306,15.2,15.7,14.9,1.622,1.5,92,19,2.9,0.00024,0.00028,33.3,34.9,49,124,0,0.0,5.53,0.00,0.00
15min,AgWx,bigpiney,439,14NOV2019:09:00:00,21.2,14.6,21.0,20.4,19.8,20.4,19.1,85,87,84,0.321,16.1,16.7,15.1,2.565,1.8,115,15,3.5,0.00037,0.00041,33.3,34.9,49,178,0,0.0,5.53,0.00,0.00